When you browse on this site, cookies collect data to enhance your experience and personalize the content and advertising you see.
Visit our Privacy Policy to learn more. By continuing to use the site, you agree to this use of cookies and data.
  • In Schweiz
  • Länderverzeichnis
  • Für 7 Tage
  • Wassertemperatur
  • Satellitenkarten
  • Wetterkarte
  • Widgets
  • user-avatar
    Anmelden

    Stündliche Wetter Jechegnadsor

    Heute, 18 Juni, Dienstag

    Zeit Temperatur Niederschläge Wind Luftdruck Luftfeuchtigkeit
    00:00 +20°C° 0.1 mm 1 m/S 652 mmHg 62%
    01:00 +20°C° 0.1 mm 1 m/S 651 mmHg 64%
    02:00 +19°C° 0.1 mm 1 m/S 651 mmHg 65%
    03:00 +19°C° 0.1 mm 1 m/S 651 mmHg 67%
    04:00 +20°C° 0 mm 1 m/S 651 mmHg 66%
    05:00 +21°C° 0 mm 1 m/S 652 mmHg 64%
    06:00 +22°C° 0 mm 1 m/S 652 mmHg 63%
    07:00 +23°C° 0 mm 1 m/S 652 mmHg 58%
    08:00 +25°C° 0 mm 1 m/S 653 mmHg 53%
    09:00 +26°C° 0 mm 1 m/S 653 mmHg 47%
    10:00 +27°C° 0.1 mm 2 m/S 653 mmHg 44%
    11:00 +28°C° 0.1 mm 2 m/S 653 mmHg 42%
    12:00 +29°C° 0.1 mm 2 m/S 652 mmHg 39%
    13:00 +29°C° 0.2 mm 2 m/S 652 mmHg 38%
    14:00 +29°C° 0.2 mm 2 m/S 652 mmHg 38%
    15:00 +29°C° 0.2 mm 3 m/S 652 mmHg 37%
    16:00 +29°C° 0.2 mm 2 m/S 652 mmHg 40%
    17:00 +28°C° 0.2 mm 2 m/S 651 mmHg 43%
    18:00 +27°C° 0.2 mm 2 m/S 651 mmHg 45%
    19:00 +25°C° 0.7 mm 2 m/S 651 mmHg 54%
    20:00 +23°C° 0.7 mm 2 m/S 651 mmHg 62%
    21:00 +20°C° 0.7 mm 3 m/S 651 mmHg 70%
    22:00 +19°C° 0.5 mm 3 m/S 651 mmHg 72%
    23:00 +19°C° 0.5 mm 3 m/S 651 mmHg 74%

    Morgen, 19 Juni, Mittwoch

    Zeit Temperatur Niederschläge Wind Luftdruck Luftfeuchtigkeit
    00:00 +18°C° 0.5 mm 4 m/S 651 mmHg 76%
    01:00 +18°C° 0.1 mm 3 m/S 651 mmHg 74%
    02:00 +18°C° 0.1 mm 2 m/S 651 mmHg 71%
    03:00 +18°C° 0.1 mm 1 m/S 650 mmHg 69%
    04:00 +19°C° 0 mm 1 m/S 651 mmHg 68%
    05:00 +20°C° 0 mm 1 m/S 651 mmHg 66%
    06:00 +21°C° 0 mm 1 m/S 651 mmHg 64%
    07:00 +22°C° 0.2 mm 1 m/S 652 mmHg 59%
    08:00 +24°C° 0.2 mm 1 m/S 652 mmHg 54%
    09:00 +25°C° 0.2 mm 1 m/S 652 mmHg 49%
    10:00 +26°C° 0.5 mm 1 m/S 652 mmHg 47%
    11:00 +27°C° 0.5 mm 1 m/S 652 mmHg 45%
    12:00 +28°C° 0.5 mm 2 m/S 652 mmHg 42%
    13:00 +27°C° 0.6 mm 2 m/S 652 mmHg 44%
    14:00 +27°C° 0.6 mm 2 m/S 652 mmHg 45%
    15:00 +27°C° 0.6 mm 2 m/S 652 mmHg 46%
    16:00 +26°C° 0.4 mm 2 m/S 651 mmHg 50%
    17:00 +25°C° 0.4 mm 2 m/S 651 mmHg 54%
    18:00 +24°C° 0.4 mm 2 m/S 651 mmHg 57%
    19:00 +23°C° 0 mm 2 m/S 651 mmHg 60%
    20:00 +21°C° 0 mm 2 m/S 651 mmHg 63%
    21:00 +19°C° 0 mm 2 m/S 651 mmHg 66%
    22:00 +19°C° 0 mm 2 m/S 651 mmHg 65%
    23:00 +18°C° 0 mm 2 m/S 651 mmHg 65%

    übermorgen, 20 Juni, Donnerstag

    Zeit Temperatur Niederschläge Wind Luftdruck Luftfeuchtigkeit
    00:00 +18°C° 0 mm 2 m/S 651 mmHg 65%
    01:00 +17°C° 0 mm 2 m/S 651 mmHg 66%
    02:00 +17°C° 0 mm 2 m/S 650 mmHg 67%
    03:00 +17°C° 0 mm 2 m/S 650 mmHg 67%
    04:00 +18°C° 0 mm 2 m/S 651 mmHg 66%
    05:00 +20°C° 0 mm 1 m/S 651 mmHg 65%
    06:00 +21°C° 0 mm 1 m/S 651 mmHg 63%
    07:00 +22°C° 0 mm 1 m/S 652 mmHg 56%
    08:00 +24°C° 0 mm 1 m/S 652 mmHg 50%
    09:00 +26°C° 0 mm 1 m/S 652 mmHg 43%
    10:00 +27°C° 0 mm 1 m/S 652 mmHg 41%
    11:00 +28°C° 0 mm 1 m/S 652 mmHg 39%
    12:00 +29°C° 0 mm 2 m/S 652 mmHg 36%
    13:00 +29°C° 0 mm 2 m/S 652 mmHg 35%
    14:00 +30°C° 0 mm 2 m/S 652 mmHg 33%
    15:00 +30°C° 0 mm 3 m/S 651 mmHg 32%
    16:00 +29°C° 0 mm 2 m/S 651 mmHg 36%
    17:00 +29°C° 0 mm 2 m/S 651 mmHg 40%
    18:00 +28°C° 0 mm 2 m/S 651 mmHg 44%
    19:00 +26°C° 0.1 mm 2 m/S 651 mmHg 50%
    20:00 +24°C° 0.1 mm 2 m/S 650 mmHg 56%
    21:00 +21°C° 0.1 mm 2 m/S 650 mmHg 62%
    22:00 +20°C° 0.1 mm 2 m/S 650 mmHg 63%
    23:00 +19°C° 0.1 mm 2 m/S 650 mmHg 63%

    21 Juni, Freitag

    Zeit Temperatur Niederschläge Wind Luftdruck Luftfeuchtigkeit
    00:00 +19°C° 0.1 mm 2 m/S 650 mmHg 63%
    01:00 +19°C° 0.1 mm 2 m/S 650 mmHg 64%
    02:00 +18°C° 0.1 mm 2 m/S 650 mmHg 65%
    03:00 +18°C° 0.1 mm 2 m/S 650 mmHg 66%
    04:00 +19°C° 0.1 mm 2 m/S 650 mmHg 65%
    05:00 +20°C° 0.1 mm 1 m/S 650 mmHg 64%
    06:00 +21°C° 0.1 mm 1 m/S 651 mmHg 63%
    07:00 +23°C° 0.2 mm 1 m/S 651 mmHg 57%
    08:00 +24°C° 0.2 mm 1 m/S 651 mmHg 52%
    09:00 +26°C° 0.2 mm 1 m/S 652 mmHg 47%
    10:00 +27°C° 0.3 mm 1 m/S 652 mmHg 45%
    11:00 +28°C° 0.3 mm 1 m/S 652 mmHg 43%
    12:00 +29°C° 0.3 mm 2 m/S 652 mmHg 40%
    13:00 +29°C° 0.4 mm 2 m/S 652 mmHg 41%
    14:00 +29°C° 0.4 mm 2 m/S 651 mmHg 42%
    15:00 +29°C° 0.4 mm 2 m/S 651 mmHg 42%
    16:00 +27°C° 0.6 mm 2 m/S 651 mmHg 50%
    17:00 +25°C° 0.6 mm 2 m/S 651 mmHg 58%
    18:00 +22°C° 0.6 mm 3 m/S 650 mmHg 67%
    19:00 +21°C° 1.8 mm 3 m/S 651 mmHg 70%
    20:00 +20°C° 1.8 mm 3 m/S 651 mmHg 73%
    21:00 +19°C° 1.8 mm 2 m/S 652 mmHg 76%
    22:00 +18°C° 0 mm 2 m/S 651 mmHg 74%
    23:00 +18°C° 0 mm 2 m/S 651 mmHg 72%

    22 Juni, Samstag

    Zeit Temperatur Niederschläge Wind Luftdruck Luftfeuchtigkeit
    00:00 +19°C° 0 mm 1 m/S 651 mmHg 71%
    01:00 +18°C° 0 mm 1 m/S 651 mmHg 71%
    02:00 +18°C° 0 mm 1 m/S 651 mmHg 71%
    03:00 +18°C° 0 mm 1 m/S 651 mmHg 71%
    04:00 +19°C° 0 mm 1 m/S 651 mmHg 70%
    05:00 +20°C° 0 mm 1 m/S 652 mmHg 68%
    06:00 +21°C° 0 mm 1 m/S 652 mmHg 66%
    07:00 +22°C° 0 mm 1 m/S 653 mmHg 61%
    08:00 +24°C° 0 mm 1 m/S 653 mmHg 57%
    09:00 +25°C° 0 mm 1 m/S 654 mmHg 52%
    10:00 +26°C° 0 mm 1 m/S 654 mmHg 49%
    11:00 +28°C° 0 mm 1 m/S 654 mmHg 47%
    12:00 +29°C° 0 mm 2 m/S 654 mmHg 44%
    13:00 +29°C° 0.1 mm 2 m/S 654 mmHg 43%
    14:00 +29°C° 0.1 mm 2 m/S 654 mmHg 43%
    15:00 +30°C° 0.1 mm 2 m/S 654 mmHg 42%
    16:00 +29°C° 0.1 mm 2 m/S 653 mmHg 45%
    17:00 +29°C° 0.1 mm 2 m/S 653 mmHg 48%
    18:00 +28°C° 0.1 mm 2 m/S 653 mmHg 51%
    19:00 +26°C° 0 mm 2 m/S 653 mmHg 57%
    20:00 +24°C° 0 mm 2 m/S 653 mmHg 62%
    21:00 +21°C° 0 mm 2 m/S 653 mmHg 68%
    22:00 +21°C° 0.1 mm 2 m/S 653 mmHg 68%
    23:00 +20°C° 0.1 mm 2 m/S 653 mmHg 68%

    23 Juni, Sonntag

    Zeit Temperatur Niederschläge Wind Luftdruck Luftfeuchtigkeit
    00:00 +20°C° 0.1 mm 2 m/S 653 mmHg 68%
    01:00 +19°C° 0 mm 2 m/S 653 mmHg 68%
    02:00 +19°C° 0 mm 2 m/S 653 mmHg 67%
    03:00 +19°C° 0 mm 2 m/S 653 mmHg 66%
    04:00 +20°C° 0 mm 2 m/S 653 mmHg 64%
    05:00 +22°C° 0 mm 1 m/S 653 mmHg 62%
    06:00 +23°C° 0 mm 1 m/S 654 mmHg 59%
    07:00 +24°C° 0 mm 1 m/S 654 mmHg 55%
    08:00 +26°C° 0 mm 1 m/S 655 mmHg 50%
    09:00 +28°C° 0 mm 1 m/S 655 mmHg 45%
    10:00 +29°C° 0.1 mm 1 m/S 655 mmHg 43%
    11:00 +30°C° 0.1 mm 1 m/S 655 mmHg 41%
    12:00 +31°C° 0.1 mm 2 m/S 655 mmHg 39%
    13:00 +31°C° 0.1 mm 2 m/S 655 mmHg 37%
    14:00 +31°C° 0.1 mm 2 m/S 655 mmHg 36%
    15:00 +32°C° 0.1 mm 2 m/S 654 mmHg 34%
    16:00 +31°C° 0.1 mm 3 m/S 654 mmHg 39%
    17:00 +30°C° 0.1 mm 3 m/S 654 mmHg 44%
    18:00 +29°C° 0.1 mm 3 m/S 653 mmHg 48%
    19:00 +27°C° 0 mm 3 m/S 653 mmHg 53%
    20:00 +25°C° 0 mm 3 m/S 653 mmHg 57%
    21:00 +22°C° 0 mm 3 m/S 653 mmHg 61%
    22:00 +22°C° 0 mm 3 m/S 653 mmHg 63%
    23:00 +21°C° 0 mm 3 m/S 653 mmHg 65%
    Mehr zeigen